Location: Bishopstone
(51.0167°N, 1.9000°W)
Time: 21:18:12
(UTC+00:00)

Okean 1 Rocket - Pass Details

Date: 16 September 2019
Orbit: 607 x 634 km, 82.5° (Epoch: 12 October)

Event Time Altitude Azimuth Distance (km) Brightness Sun altitude
Rises 19:58:32 0° 196° (SSW) 2,856 6.4 -15.7°
Reaches altitude 10° 20:00:45 10° 199° (SSW) 1,957 5.6 -16.0°
Maximum altitude 20:05:04 67° 283° (WNW) 665 3.4 -16.6°
Drops below altitude 10° 20:09:26 10° 6° (N) 1,982 5.9 -17.3°
Sets 20:11:41 0° 9° (N) 2,895 6.7 -17.6°
